Wetbulb
45.24 45.26 45.65 46.00 45.64 44.66 35.06 26.60 19.14 33.28 31.16 20.90 19.77 17.24 20.56 25.49 22.72 23.77 21.95 20.65 19.26 15.36 14.88 13.06 15.35 15.07 19.37 23.89 22.72 17.32 23.18 18.58 14.06 16.59 22.74 24.86 21.69 18.72 18.14 15.65 17.00 17.54 15.55 11.45
45.28 45.15 45.24 45.56 45.07 43.27 28.21 23.90 22.45 30.01 28.16 15.43 16.18 19.25 20.30 22.81 21.39 21.18 20.99 19.22 20.61 19.22 14.88 11.29 15.02 17.00 22.30 23.14 21.35 19.16 21.85 15.94 10.45 13.71 19.02 21.30 15.82 17.12 18.95 18.55 18.85 11.24 12.34 10.38
45.38 44.62 44.59 45.10 44.23 42.80 27.88 22.47 16.80 22.71 23.37 22.28 14.05 13.80 17.31 16.89 23.69 22.23 22.87 20.88 21.13 18.19 15.68 18.42 14.04 16.64 21.85 23.78 22.65 28.07 23.13 17.46 13.22 8.90 10.40 13.85 10.68 14.32 16.41 13.26 10.51 11.73 8.94 12.65
44.92 44.33 45.16 44.50 43.41 42.08 28.56 23.43 20.20 22.47 16.94 19.16 16.62 14.00 17.02 15.38 15.46 20.56 22.34 19.56 19.38 17.49 13.06 14.75 14.10 17.91 18.62 21.49 23.73 19.00 16.52 9.09 14.89 12.64 11.72 10.87 9.64 10.73 10.91 8.27 9.74 7.39 9.60 8.78
44.51 44.05 44.61 43.82 42.67 40.43 28.09 21.42 18.70 19.90 17.68 18.21 15.06 16.18 15.27 15.23 16.40 18.13 17.10 16.32 17.99 19.60 13.68 14.26 11.61 16.94 12.55 10.48 15.06 14.22 16.73 7.07 13.45 10.24 10.62 9.29 5.26 8.55 9.41 9.31 9.97 10.81 10.65 9.78
43.90 43.88 44.06 43.47 42.07 37.45 26.32 26.37 24.97 18.08 19.22 16.28 11.59 15.60 15.71 15.21 18.20 19.41 20.59 19.31 16.80 15.57 17.21 19.83 16.71 16.52 15.30 13.26 9.46 8.20 12.75 7.71 8.81 6.45 9.50 10.29 0.78 4.68 7.46 9.14 9.31 8.76 2.90 7.75
43.85 43.76 43.68 43.09 41.89 37.33 28.92 28.83 21.32 12.97 12.80 15.80 15.22 16.39 17.14 15.19 17.01 15.85 18.47 19.40 16.61 21.05 24.77 22.34 17.85 17.86 16.64 14.46 12.42 12.92 6.38 8.96 10.33 7.62 9.04 -10.52 5.59 11.59 11.20 9.53 8.98 9.36 9.37 10.35
43.39 43.63 43.29 42.64 41.61 40.66 30.78 30.83 22.43 11.69 6.38 16.68 16.66 16.34 15.84 15.89 16.12 15.39 17.56 18.84 20.32 22.63 21.78 17.20 12.27 12.11 11.85 10.54 11.19 10.82 7.42 1.61 -0.03 -2.48 -1.69 2.50 4.81 7.32 6.66 5.04 5.36 9.76 8.65 10.38
43.27 43.13 42.50 41.53 41.34 40.43 31.24 31.69 26.93 16.89 7.48 13.69 19.87 16.57 14.79 12.99 10.74 12.47 16.43 20.43 21.49 20.96 22.05 14.40 5.04 -0.35 2.32 0.51 4.92 12.28 11.49 4.61 0.08 2.60 -6.64 -7.14 1.94 9.06 12.31 10.87 1.62 10.15 10.93 10.27
43.04 42.78 42.29 41.27 40.75 39.93 32.23 29.10 27.78 18.97 8.31 17.47 19.70 17.07 16.79 19.83 12.39 5.47 12.78 16.42 17.85 20.20 11.90 8.27 2.41 -0.32 5.57 -4.67 -1.99 0.63 0.90 -0.62 -1.75 1.67 -2.44 1.70 8.23 10.17 12.24 -3.17 0.60 11.32 11.99 12.05
42.51 42.45 42.31 41.08 40.44 39.71 32.17 28.78 28.53 20.88 7.85 14.83 22.24 23.14 17.43 17.09 15.10 5.65 14.28 11.62 12.60 12.98 2.90 4.72 1.91 0.01 -3.04 -0.79 0.97 -2.65 -2.00 -7.38 -0.25 1.32 -4.43 -9.67 11.58 8.97 -0.08 8.06 10.80 11.86 12.28 12.72
42.23 42.08 41.95 41.30 40.48 39.78 34.98 26.30 30.15 28.63 18.22 16.60 24.53 24.31 23.13 23.81 24.27 13.80 15.41 15.66 17.40 17.11 3.38 1.10 1.78 2.93 -0.28 -7.94 -7.92 4.54 -3.60 0.65 -4.05 -1.59 3.34 11.00 13.62 11.09 14.09 13.86 10.95 11.46 12.36 13.35
41.84 41.59 41.63 40.72 40.33 39.39 34.23 27.55 28.27 25.33 15.79 16.88 20.64 20.03 23.92 24.92 23.36 26.41 11.45 15.67 20.15 12.75 10.94 1.35 -2.09 -4.21 4.23 -5.39 -1.73 -2.45 5.08 6.97 2.04 3.86 8.04 7.89 9.89 12.53 14.17 14.42 12.59 13.55 14.61 15.49
41.27 41.11 41.27 40.32 40.28 39.79 36.05 28.73 28.35 24.88 18.74 10.92 14.55 24.89 21.97 24.94 22.99 23.11 22.86 17.10 15.05 8.62 8.85 1.67 1.50 3.76 6.80 -2.72 -0.58 1.92 1.52 4.92 3.05 1.76 5.17 7.88 13.27 11.38 11.25 12.37 13.18 12.24 13.50 15.29
40.57 39.96 40.59 40.47 39.13 37.80 31.32 28.88 29.10 28.58 19.94 14.28 15.31 21.71 23.57 23.50 22.76 20.89 20.44 16.49 6.17 1.24 4.43 1.17 -2.16 1.39 3.87 -4.90 2.82 1.04 3.87 0.28 -1.63 -2.71 2.65 5.49 6.96 8.71 10.87 9.90 10.37 11.46 12.92 12.02
39.79 40.78 40.02 40.90 40.07 37.10 27.26 21.65 26.04 30.97 27.57 14.27 10.40 23.04 19.24 21.54 22.31 21.64 17.08 15.00 2.78 1.29 2.79 -6.20 -5.39 3.41 2.92 -4.71 -5.11 5.18 5.23 4.36 5.11 1.98 4.23 7.80 9.17 9.03 7.56 9.07 9.77 11.39 11.85 12.01
39.68 39.89 39.77 38.46 36.44 26.96 23.68 22.22 26.97 33.48 26.30 15.67 9.78 13.77 19.43 20.82 21.59 18.95 17.13 12.29 7.28 5.92 -3.48 1.10 0.20 2.49 5.25 -3.63 -6.83 0.22 2.04 2.47 3.21 5.46 6.71 5.16 4.43 7.84 10.58 9.22 9.26 11.86 8.77 9.99
40.33 39.81 39.17 38.34 37.37 32.82 27.74 28.80 30.08 26.99 21.12 16.77 -0.74 6.99 13.50 19.70 12.91 11.72 17.66 8.22 9.22 9.55 1.41 3.01 2.36 5.99 1.99 -6.15 -3.78 -4.33 -2.17 2.69 1.11 1.67 1.03 5.21 7.95 7.63 7.28 8.62 8.55 9.37 7.81 10.88
41.05 39.11 36.58 28.00 25.83 23.41 26.54 34.35 29.41 23.95 20.05 2.85 3.99 2.58 2.76 17.15 16.20 13.14 13.46 9.62 3.07 7.87 0.98 3.84 8.74 -2.81 -8.62 -2.95 -3.84 -6.45 -5.08 -0.70 0.49 -0.80 3.50 5.87 3.81 6.91 7.57 9.59 8.99 8.92 9.95 11.65
37.23 28.55 24.00 17.67 23.22 32.91 29.73 21.46 16.74 13.48 10.30 10.67 6.40 11.53 2.46 9.10 12.30 11.09 6.64 6.07 1.84 -5.36 4.79 10.66 -1.17 -8.14 -4.25 -4.56 -0.47 -0.70 -1.22 -1.81 0.14 4.94 3.76 7.58 7.78 8.73 8.94 9.66 10.56 10.78 11.30 11.72
25.30 20.74 18.68 23.80 28.90 21.29 14.60 5.07 5.04 4.19 -0.83 4.12 4.04 3.78 2.64 14.30 4.77 4.78 8.71 -1.93 1.49 -6.90 2.25 -0.59 -4.14 -5.46 -3.83 -4.02 -3.19 1.27 2.40 5.32 7.34 8.43 9.54 10.15 9.20 8.83 9.18 9.59 10.28 10.88 11.20 10.90
26.38 24.71 24.00 21.03 14.90 10.40 5.04 -3.96 4.50 1.88 -0.57 5.85 4.15 7.11 8.88 8.88 13.36 4.87 4.27 -3.26 -2.65 -6.92 3.49 -3.83 -8.34 -2.77 -4.14 -5.23 0.36 5.27 5.79 9.22 9.98 10.80 10.33 10.45 11.23 10.74 10.08 9.93 9.84 10.20 10.91 10.77
22.48 18.38 11.17 11.96 6.78 3.67 -2.80 -5.54 -1.93 -2.66 -1.81 3.26 7.47 4.09 8.35 11.85 10.45 0.01 -5.27 -6.08 -7.88 -1.30 -10.41 -9.59 -5.87 -5.91 -0.61 0.83 3.90 8.68 10.29 10.65 11.04 11.13 11.81 11.63 11.56 11.77 11.09 10.12 10.73 9.79 8.90 9.70
12.42 2.93 2.94 0.39 -5.03 -1.54 -0.75 -1.16 -0.78 6.73 3.63 7.54 3.58 3.85 4.06 10.07 4.24 -1.82 -5.25 -5.14 -3.46 -12.72 -13.43 -9.16 -5.90 -3.99 1.26 4.83 6.74 6.53 9.75 10.88 10.82 10.81 11.08 10.77 10.32 10.51 10.40 10.67 9.62 8.27 7.50 9.72
4.30 5.01 -0.42 -1.54 7.98 3.33 1.31 -0.98 2.14 7.20 5.56 3.54 5.28 7.88 6.31 3.17 -2.64 2.05 -5.75 -8.60 -13.57 -7.56 -8.04 -5.17 -1.32 1.12 -1.85 5.17 10.06 9.78 9.33 10.11 9.16 9.41 9.14 10.07 10.09 10.05 9.83 9.95 8.78 8.04 8.47 8.90
4.03 2.01 2.25 7.81 2.80 -0.50 -1.47 -1.67 2.70 9.57 6.63 11.65 8.09 -2.04 -6.31 -6.31 -3.75 -6.33 -12.26 -11.90 -13.25 -6.00 -6.07 2.05 0.70 5.80 4.38 8.82 10.72 11.26 10.62 7.88 7.77 9.03 9.26 10.74 10.62 10.07 9.45 8.59 8.03 7.75 8.32 8.37
1.28 1.59 12.22 8.21 2.28 3.49 4.46 8.56 9.45 11.96 6.38 0.52 -4.60 -7.10 -5.71 -5.92 -11.18 -9.98 -4.64 -8.91 -2.82 0.53 4.49 7.71 8.60 9.34 10.25 10.69 10.74 11.33 11.42 10.81 10.04 10.10 11.73 11.78 11.93 9.55 7.65 6.06 8.94 8.65 9.96 9.22
MSLP
1024.70 1024.16 1023.49 1022.79 1021.99 1021.21 1020.91 1021.88 1022.11 1020.73 1019.43 1019.98 1021.78 1022.38 1022.41 1021.87 1021.31 1020.73 1020.58 1020.63 1020.77 1020.98 1020.63 1020.35 1019.90 1019.68 1019.08 1018.63 1017.99 1017.54 1017.10 1017.17 1017.01 1017.23 1017.56 1017.38 1017.12 1016.84 1015.76 1015.11 1014.87 1015.23 1016.19 1020.94
1025.12 1024.54 1023.85 1023.20 1022.45 1021.97 1022.61 1023.51 1023.46 1022.03 1021.42 1023.06 1023.90 1023.78 1023.30 1022.59 1022.10 1021.78 1021.49 1021.49 1021.55 1021.48 1021.34 1021.23 1020.86 1020.27 1019.53 1019.13 1018.63 1018.34 1017.82 1018.20 1018.27 1018.34 1018.49 1018.57 1019.26 1019.40 1017.97 1017.59 1016.96 1018.41 1019.05 1022.29
1025.49 1024.97 1024.31 1023.69 1022.93 1022.41 1023.14 1024.30 1024.80 1024.34 1024.15 1025.21 1025.39 1025.23 1024.67 1023.75 1022.88 1022.61 1022.47 1022.30 1022.00 1021.93 1022.00 1021.90 1021.68 1021.05 1020.26 1020.01 1019.43 1018.76 1018.36 1019.17 1019.71 1020.21 1021.16 1021.21 1022.09 1021.69 1020.18 1020.07 1020.16 1021.45 1022.45 1023.57
1025.88 1025.42 1024.79 1024.27 1023.53 1023.01 1023.62 1025.45 1026.81 1026.81 1026.75 1026.35 1026.47 1026.21 1025.94 1025.12 1024.29 1023.53 1023.22 1022.85 1023.15 1023.15 1022.88 1022.55 1022.46 1022.13 1021.44 1020.93 1020.82 1020.37 1020.40 1021.16 1021.31 1022.26 1022.97 1023.18 1024.14 1023.74 1023.94 1024.42 1024.05 1023.85 1024.54 1025.58
1026.34 1025.88 1025.32 1024.84 1024.22 1023.85 1024.77 1026.36 1027.15 1027.48 1027.82 1027.54 1027.25 1026.92 1026.66 1026.06 1025.34 1024.76 1024.27 1024.34 1024.07 1023.91 1024.11 1023.99 1023.63 1023.35 1023.66 1023.82 1022.80 1022.51 1022.22 1022.69 1022.57 1023.75 1024.37 1024.67 1025.94 1026.78 1026.90 1026.72 1026.36 1025.81 1025.68 1026.52
1026.65 1026.28 1025.79 1025.52 1025.13 1024.76 1026.04 1026.79 1027.31 1027.90 1029.09 1028.58 1028.27 1028.35 1027.72 1027.05 1026.35 1025.39 1025.15 1025.07 1024.75 1024.75 1024.94 1024.41 1024.51 1024.55 1025.08 1025.42 1024.99 1024.58 1024.16 1024.17 1024.26 1024.99 1025.31 1025.26 1027.13 1029.34 1029.00 1028.69 1029.15 1028.14 1028.85 1029.64
1027.05 1026.72 1026.32 1026.02 1025.86 1025.94 1026.60 1027.34 1027.88 1028.95 1030.29 1029.49 1029.48 1028.94 1028.29 1027.68 1027.03 1026.52 1025.77 1025.38 1025.26 1025.85 1025.47 1025.20 1025.19 1025.24 1025.36 1025.60 1026.05 1026.20 1026.14 1025.85 1025.79 1026.42 1026.68 1028.87 1030.55 1030.62 1030.34 1029.93 1030.16 1030.24 1030.60 1030.09
1027.49 1027.18 1026.87 1026.67 1026.46 1026.51 1027.03 1027.53 1028.07 1029.45 1030.79 1030.53 1029.53 1029.01 1028.65 1027.95 1027.56 1027.06 1026.46 1025.86 1025.57 1025.51 1025.81 1025.77 1025.94 1026.03 1026.25 1026.96 1027.36 1027.30 1027.53 1027.44 1028.08 1028.54 1029.50 1031.17 1030.92 1031.12 1031.57 1031.81 1031.33 1031.51 1031.32 1030.27
1027.76 1027.60 1027.43 1027.19 1027.07 1026.84 1027.46 1028.08 1028.31 1029.37 1030.92 1031.15 1030.54 1029.71 1029.22 1028.85 1028.41 1027.82 1026.92 1026.07 1025.61 1025.52 1025.68 1026.59 1028.05 1029.25 1029.99 1029.72 1029.32 1028.88 1028.78 1028.57 1028.71 1029.72 1031.03 1032.48 1033.02 1032.11 1031.47 1031.00 1031.96 1032.18 1032.16 1031.32
1028.13 1027.89 1027.81 1027.66 1027.46 1027.43 1027.79 1028.62 1028.56 1029.38 1031.34 1031.25 1030.64 1030.12 1029.82 1029.62 1029.45 1029.42 1028.44 1027.48 1026.56 1026.18 1027.18 1028.89 1030.50 1031.73 1032.26 1032.93 1033.02 1032.42 1031.55 1031.30 1031.50 1031.46 1032.24 1033.36 1033.68 1032.38 1031.30 1032.31 1033.75 1032.81 1032.49 1031.94
1028.34 1028.18 1028.07 1028.06 1027.94 1027.88 1028.21 1029.32 1029.11 1029.41 1031.02 1031.33 1030.79 1030.47 1030.36 1029.99 1029.94 1030.01 1028.85 1028.53 1028.26 1028.29 1029.43 1031.18 1032.76 1033.73 1034.50 1034.84 1035.18 1034.94 1034.71 1034.42 1033.86 1033.40 1033.70 1034.42 1034.00 1033.13 1033.64 1034.81 1033.92 1033.47 1032.74 1031.97
1028.50 1028.42 1028.36 1028.44 1028.31 1028.25 1028.42 1029.59 1029.53 1029.59 1030.65 1031.44 1030.88 1030.28 1030.06 1030.17 1029.76 1029.88 1029.67 1030.05 1029.95 1030.21 1031.43 1033.09 1034.20 1035.32 1035.88 1036.38 1036.50 1035.86 1036.16 1036.32 1035.94 1035.65 1035.78 1035.69 1035.17 1035.17 1035.00 1034.66 1034.05 1033.09 1032.29 1031.34
1028.70 1028.63 1028.64 1028.79 1028.60 1028.48 1028.70 1029.87 1030.08 1030.20 1031.31 1031.60 1030.59 1030.19 1030.12 1029.62 1029.46 1029.44 1030.20 1030.10 1030.40 1031.03 1031.81 1033.38 1035.47 1036.70 1036.75 1037.57 1037.99 1037.43 1036.87 1036.57 1036.70 1036.57 1036.02 1035.78 1035.30 1035.19 1035.07 1034.68 1034.11 1033.33 1032.52 1031.47
1028.92 1028.83 1028.98 1029.18 1029.06 1028.92 1029.02 1030.03 1030.40 1030.56 1031.53 1032.34 1031.96 1030.85 1030.45 1030.11 1029.63 1029.57 1029.79 1030.25 1030.86 1031.71 1032.58 1034.66 1036.41 1037.06 1037.20 1038.29 1038.58 1038.46 1038.40 1037.75 1037.75 1037.44 1036.83 1035.80 1035.42 1035.47 1035.32 1034.66 1034.06 1033.37 1032.57 1031.81
1029.08 1028.98 1029.06 1029.43 1029.60 1029.70 1029.95 1030.34 1030.53 1030.37 1031.21 1032.08 1032.06 1031.36 1030.84 1030.61 1030.31 1030.25 1030.31 1030.69 1032.03 1033.44 1034.72 1036.55 1037.88 1038.01 1038.07 1038.89 1038.96 1039.35 1039.11 1039.13 1039.00 1038.45 1038.07 1037.74 1036.58 1035.87 1035.52 1035.20 1034.56 1033.76 1032.81 1031.71
1029.09 1028.95 1029.08 1029.34 1029.54 1029.91 1030.16 1030.62 1030.63 1030.42 1030.61 1031.79 1032.56 1032.06 1031.85 1031.21 1030.92 1031.03 1031.33 1031.97 1033.28 1034.56 1036.18 1037.94 1037.90 1037.68 1038.32 1039.43 1040.13 1039.80 1039.48 1039.19 1039.02 1038.74 1037.97 1037.54 1036.73 1036.26 1035.79 1035.52 1034.91 1034.22 1033.33 1032.35
1029.48 1029.45 1029.62 1029.88 1029.98 1030.37 1030.75 1031.64 1031.14 1030.51 1030.92 1032.19 1033.43 1033.19 1032.68 1032.33 1032.06 1032.10 1032.41 1032.91 1034.05 1035.02 1036.68 1037.98 1038.29 1038.22 1038.12 1039.79 1040.74 1040.19 1039.84 1039.24 1038.97 1038.56 1038.21 1037.41 1036.77 1036.39 1035.76 1035.34 1034.60 1033.93 1033.29 1032.54
1029.91 1030.02 1030.18 1030.42 1030.50 1030.70 1031.05 1031.52 1031.07 1030.95 1031.77 1033.15 1035.60 1035.33 1034.14 1033.62 1033.63 1033.74 1033.54 1034.41 1034.74 1035.90 1037.11 1037.97 1038.32 1038.48 1039.23 1040.51 1040.60 1040.12 1039.75 1039.32 1038.98 1038.79 1038.34 1037.86 1036.95 1036.30 1035.70 1035.12 1034.56 1033.91 1033.32 1032.56
1030.07 1030.31 1030.48 1031.00 1031.24 1031.66 1031.88 1031.21 1031.35 1031.71 1032.83 1035.39 1036.95 1037.46 1036.24 1034.89 1034.75 1034.76 1034.67 1035.14 1036.21 1036.88 1037.41 1037.98 1038.27 1039.43 1039.99 1040.40 1040.48 1040.06 1039.94 1039.84 1039.25 1038.64 1037.88 1037.24 1036.90 1036.20 1035.55 1035.01 1034.46 1033.98 1033.27 1032.56
1030.55 1030.87 1031.21 1031.73 1032.06 1031.67 1031.63 1031.98 1032.54 1033.76 1035.42 1036.40 1038.05 1038.21 1037.43 1036.84 1036.13 1036.03 1036.23 1036.37 1037.43 1037.98 1038.35 1038.14 1038.99 1039.70 1039.60 1039.68 1039.39 1039.22 1039.03 1038.83 1038.44 1038.09 1037.19 1036.62 1036.10 1035.80 1035.24 1034.77 1034.44 1033.97 1033.32 1032.58
1031.35 1031.63 1032.22 1032.38 1031.96 1032.31 1033.55 1035.03 1036.12 1037.57 1038.56 1038.92 1039.11 1039.04 1038.44 1037.28 1037.50 1037.52 1037.82 1038.18 1038.43 1039.04 1039.07 1039.13 1039.99 1040.42 1039.57 1038.89 1038.85 1038.28 1038.00 1037.71 1037.34 1037.05 1036.51 1036.07 1035.74 1035.28 1034.83 1034.38 1034.06 1033.73 1033.30 1032.77
1031.88 1032.05 1032.59 1032.96 1033.96 1034.71 1036.09 1038.21 1038.82 1039.54 1040.59 1039.96 1039.62 1039.09 1038.67 1038.07 1037.83 1038.31 1038.90 1039.29 1039.66 1040.31 1040.03 1040.15 1040.80 1039.89 1039.24 1038.81 1038.35 1037.74 1037.30 1036.94 1036.51 1036.10 1035.75 1035.33 1035.00 1034.70 1034.44 1034.10 1033.74 1033.43 1033.07 1032.73
1032.35 1032.80 1034.27 1035.67 1037.03 1038.03 1039.36 1040.66 1040.97 1040.92 1041.09 1040.34 1039.91 1039.54 1039.08 1038.42 1038.49 1039.43 1040.06 1040.67 1041.07 1040.96 1040.98 1041.11 1040.47 1039.34 1038.71 1038.07 1037.67 1037.01 1036.50 1036.18 1035.84 1035.43 1035.08 1034.72 1034.42 1034.15 1034.00 1033.70 1033.30 1033.07 1032.88 1032.51
1034.20 1035.74 1037.30 1038.65 1039.91 1040.05 1040.55 1041.25 1041.26 1040.74 1040.67 1040.38 1040.32 1040.08 1039.72 1039.33 1039.42 1040.19 1041.01 1041.38 1041.51 1041.68 1041.75 1041.28 1039.82 1038.50 1037.78 1037.31 1036.84 1036.57 1035.86 1035.48 1035.18 1034.82 1034.51 1034.26 1033.98 1033.67 1033.46 1033.27 1033.02 1032.82 1032.47 1032.11
1036.35 1037.23 1038.95 1039.65 1039.89 1040.34 1040.57 1040.62 1040.75 1040.29 1040.31 1040.31 1040.32 1040.29 1040.37 1040.15 1040.55 1040.77 1041.37 1041.68 1041.75 1041.56 1040.82 1039.62 1038.01 1037.31 1036.93 1036.55 1036.01 1035.58 1035.19 1034.79 1034.48 1034.15 1033.93 1033.61 1033.37 1033.15 1032.81 1032.60 1032.51 1032.34 1032.06 1031.72
1037.28 1038.43 1039.35 1039.73 1040.19 1040.51 1040.51 1040.46 1040.29 1039.84 1040.12 1040.25 1040.50 1040.79 1041.11 1041.47 1041.53 1041.59 1041.89 1041.59 1040.71 1040.16 1039.21 1037.50 1036.80 1036.35 1035.92 1035.52 1034.99 1034.61 1034.29 1034.03 1033.75 1033.50 1033.26 1032.94 1032.74 1032.54 1032.28 1031.96 1031.78 1031.57 1031.44 1031.24
1038.83 1039.28 1038.74 1039.15 1039.31 1039.55 1039.61 1039.54 1039.45 1039.44 1039.98 1040.58 1041.05 1041.57 1041.50 1041.69 1041.68 1041.54 1041.07 1039.94 1038.70 1037.59 1036.58 1035.92 1035.56 1035.23 1034.81 1034.41 1034.05 1033.65 1033.35 1033.09 1032.81 1032.58 1032.32 1032.07 1031.82 1031.78 1031.82 1031.60 1031.05 1030.87 1030.70 1030.52
Wind_Speed
24 25 27 28 28 27 10 4 5 11 9 10 4 6 5 9 11 8 7 6 4 4 4 4 5 8 5 10 8 6 1 3 3 7 5 8 14 7 5 1 2 4 4 6
23 25 26 26 27 22 2 3 2 5 5 8 5 5 10 5 10 10 7 8 6 5 4 4 5 5 7 10 7 3 4 2 3 4 2 8 9 11 10 3 1 5 2 7
24 25 25 25 26 22 5 4 5 5 5 2 3 4 8 12 6 4 8 5 6 7 5 4 4 7 4 7 9 14 5 4 5 4 8 12 8 17 20 11 5 2 5 6
23 23 24 24 25 18 5 4 2 2 5 8 6 3 6 12 11 4 8 5 15 8 4 6 5 4 6 4 14 8 5 4 7 17 19 25 21 21 21 18 14 6 6 7
21 22 23 23 25 11 6 4 3 4 3 4 5 8 8 12 12 3 5 10 14 8 8 4 5 4 6 5 8 8 6 1 3 9 20 26 22 23 18 13 14 9 13 5
20 21 22 21 21 10 4 2 3 5 9 5 5 7 10 13 11 5 7 7 6 8 11 9 10 13 11 9 6 7 5 2 2 3 10 1 12 20 15 10 14 10 13 13
20 20 20 19 17 9 3 1 3 5 4 6 7 11 9 16 11 7 6 4 3 4 8 4 2 6 11 13 14 12 5 3 3 3 2 8 2 12 10 8 12 18 17 18
18 18 18 17 14 11 4 3 4 4 2 8 11 16 9 9 7 4 3 3 4 3 4 2 4 2 4 9 8 15 6 2 5 5 5 5 9 12 10 7 2 18 19 19
16 16 16 17 14 10 4 5 2 5 6 7 7 8 5 4 5 7 4 5 5 2 1 2 5 6 5 7 13 10 12 7 5 4 6 4 3 15 16 2 4 16 17 17
14 13 12 16 13 12 5 3 3 6 5 5 5 5 7 5 3 2 5 8 8 5 3 4 4 3 2 4 7 9 8 6 9 7 5 3 12 14 10 7 7 19 17 16
12 11 11 12 10 12 5 0 4 6 4 5 4 5 4 4 2 1 6 4 5 5 6 4 2 4 2 4 3 4 5 3 5 5 6 4 16 7 8 7 10 14 15 14
11 9 9 8 9 7 5 4 3 2 6 5 3 3 1 3 4 2 4 2 3 3 5 4 3 4 4 2 3 7 7 1 1 3 3 6 4 2 4 7 10 13 13 17
9 7 8 9 9 9 7 2 2 4 4 4 6 8 7 8 2 3 3 3 3 4 3 4 3 6 3 3 3 3 6 5 3 2 3 12 3 1 9 10 12 14 14 15
6 6 8 8 12 14 9 3 2 4 3 5 6 3 5 8 7 5 1 3 5 5 4 4 4 3 3 0 3 3 3 4 5 3 5 11 2 9 10 13 14 15 15 13
4 3 5 9 9 12 7 3 3 1 5 3 3 5 5 6 7 9 10 8 5 4 5 5 1 1 4 2 2 3 1 2 2 4 4 4 9 6 10 11 12 16 15 16
6 6 6 5 5 3 3 3 2 3 2 5 2 2 6 8 7 9 7 4 4 5 5 2 2 2 5 4 1 3 2 2 4 4 4 8 12 8 4 8 11 12 10 12
12 14 13 10 7 3 5 2 5 8 2 4 3 4 5 5 4 4 3 4 2 4 2 3 2 3 4 3 2 6 5 4 4 4 4 5 3 7 12 9 12 12 8 7
10 10 11 10 10 7 4 3 9 3 5 5 4 5 4 6 4 4 3 3 3 6 3 2 2 2 2 2 6 5 5 6 4 4 3 7 9 8 8 6 6 10 8 10
8 6 6 4 4 3 1 4 7 4 5 5 3 2 4 6 2 2 4 2 4 2 3 1 2 3 0 7 6 5 5 4 6 6 7 7 5 8 8 7 8 9 11 11
4 4 3 3 2 7 5 7 5 7 6 6 3 1 3 3 3 3 3 2 1 3 3 2 4 4 5 6 7 5 6 6 3 4 6 8 9 8 9 9 7 8 10 11
3 2 1 2 7 3 5 4 5 4 6 3 2 2 2 2 1 3 2 2 1 3 4 3 3 4 5 4 4 5 5 5 6 6 7 6 7 9 9 9 8 7 8 10
2 3 3 3 6 4 8 2 4 5 1 4 1 3 2 4 2 3 3 1 4 2 4 4 3 6 6 4 5 5 5 6 7 5 7 8 8 7 8 8 8 7 7 8
3 5 6 5 5 10 6 4 6 4 2 3 3 4 2 3 2 2 4 5 3 0 5 3 6 5 5 6 4 6 5 6 6 7 6 7 8 7 7 8 8 7 6 6
5 5 6 5 5 1 4 5 4 4 2 2 1 2 1 2 3 0 3 3 2 5 4 5 5 6 5 4 3 2 6 6 7 7 7 7 7 7 7 7 6 6 7 7
4 4 1 1 3 1 2 2 2 2 2 1 1 1 1 2 2 2 2 6 3 5 6 5 5 5 3 5 5 6 6 6 6 5 6 7 7 7 8 6 6 6 7 7
5 5 4 0 3 4 2 1 3 2 1 1 2 1 4 2 1 3 4 4 5 5 5 5 3 4 5 6 6 7 6 6 7 6 6 7 7 7 7 7 6 6 6 6
4 2 1 3 2 4 3 3 3 2 3 1 2 4 5 1 4 3 4 6 6 6 4 3 5 7 7 7 7 7 7 7 7 7 7 8 6 5 5 7 6 6 6 6
Wind_Direction
8 5 4 2 359 359 41 40 42 331 349 52 27 31 1 16 358 359 17 34 19 354 314 340 26 14 24 351 332 352 327 22 6 69 65 46 43 11 35 284 105 23 72 114
8 5 4 4 1 15 54 63 334 327 15 50 15 340 15 13 8 10 6 12 355 345 316 19 28 342 323 357 344 356 305 39 315 170 160 58 48 3 21 322 164 30 24 138
12 10 8 8 2 8 76 68 24 341 30 70 68 3 7 3 355 14 357 23 355 340 14 2 342 341 347 350 344 10 8 46 60 50 54 66 47 30 33 13 57 70 58 46
16 13 13 9 4 7 82 31 54 334 1 6 12 46 344 13 6 344 7 358 8 354 345 331 15 350 328 4 357 3 60 74 75 95 95 72 51 37 34 39 10 55 345 86
18 15 16 17 8 20 67 85 64 11 354 345 8 358 1 359 350 301 6 0 343 13 0 299 307 344 5 40 324 353 350 37 58 121 96 82 62 32 29 14 9 29 35 61
22 17 18 26 18 34 68 352 43 99 358 342 27 7 352 342 350 319 11 345 342 27 1 68 97 102 91 65 32 342 6 50 57 112 164 153 33 17 16 20 42 38 35 335
24 18 20 28 30 55 108 19 99 76 24 17 21 352 350 342 341 313 311 349 20 98 302 344 52 93 83 54 43 34 6 351 65 100 95 53 304 31 8 33 57 32 1 346
25 23 24 29 33 49 70 11 80 100 88 6 358 352 337 322 313 339 297 328 257 338 183 238 306 10 19 28 21 15 43 80 62 95 61 122 25 342 339 332 42 23 351 340
25 27 33 25 33 49 75 40 81 88 110 348 316 320 314 333 334 337 290 313 307 330 237 51 32 25 337 346 346 358 4 54 94 68 79 95 272 320 320 148 164 3 345 334
17 27 41 29 44 65 78 34 39 80 99 307 341 353 334 320 341 263 301 338 342 355 53 60 45 31 6 23 6 340 347 356 38 36 94 112 346 333 331 58 320 328 328 325
17 28 39 36 51 65 74 235 18 112 115 299 343 338 341 315 25 60 289 15 351 2 53 80 25 61 314 72 332 331 24 20 9 19 47 358 1 0 52 316 305 317 322 322
19 35 42 45 46 87 90 50 349 63 87 223 269 293 252 240 273 170 323 164 324 5 84 43 87 41 37 179 10 345 39 54 194 92 73 353 313 16 320 327 323 324 325 324
29 50 52 50 53 70 97 126 347 57 73 333 29 1 327 355 323 182 71 336 348 34 166 144 149 84 116 47 342 329 339 22 48 19 332 344 275 324 355 342 334 326 327 325
41 64 91 79 74 74 77 75 323 84 116 98 288 318 3 324 15 45 138 168 45 96 61 80 79 84 41 118 169 87 237 341 340 304 340 335 194 353 336 336 335 331 330 333
48 54 131 127 103 89 78 71 17 111 123 166 272 317 340 2 19 25 38 50 59 39 40 55 86 116 82 331 62 17 355 230 79 250 233 232 281 310 319 340 333 325 327 333
52 77 129 162 142 92 62 29 337 23 69 92 37 275 351 343 3 26 21 40 71 78 103 186 308 255 96 88 115 256 239 258 202 252 268 268 272 274 294 318 316 310 327 320
86 87 86 83 92 87 80 123 278 338 65 73 21 347 351 330 345 358 8 25 60 93 131 64 133 2 71 97 139 257 294 275 283 246 319 325 317 308 320 314 311 313 300 314
116 105 108 98 97 87 40 352 17 64 86 60 73 302 344 7 331 346 6 7 23 13 146 22 70 359 60 66 249 277 280 312 335 275 253 244 279 298 305 300 305 327 326 332
135 114 96 45 37 47 259 5 54 47 82 105 71 86 283 356 325 325 348 47 42 283 69 26 64 319 158 218 224 253 239 194 245 290 282 293 292 296 303 312 322 330 328 335
82 50 53 360 309 302 357 10 22 18 349 27 87 87 283 52 354 312 1 15 72 57 280 2 68 254 247 236 221 229 257 248 236 304 320 321 320 319 316 317 316 314 321 325
40 55 131 267 330 54 32 41 59 335 19 7 275 165 285 355 41 281 77 243 339 61 278 99 335 300 254 269 267 260 257 263 267 234 259 270 274 295 307 311 312 314 318 322
157 138 76 37 29 31 73 351 343 53 237 322 12 284 224 298 5 51 354 86 33 254 313 64 324 256 255 271 266 280 282 293 290 274 276 284 285 288 295 297 296 299 306 307
39 46 48 35 317 37 74 336 321 359 295 287 340 320 343 326 66 55 47 51 240 338 40 229 231 261 272 258 266 285 286 284 280 284 274 276 279 276 272 288 294 290 285 290
67 75 20 81 331 236 177 186 198 248 185 291 168 285 350 317 14 196 64 236 54 34 24 251 253 242 253 271 255 269 287 291 286 285 284 281 280 282 270 263 272 288 294 293
88 68 101 126 212 242 220 211 336 248 191 79 12 342 29 327 29 48 47 17 316 196 228 237 241 243 255 281 278 274 276 281 283 276 279 284 283 282 285 269 260 265 274 280
78 64 83 305 52 299 325 175 251 199 189 178 53 97 40 315 97 38 219 113 231 258 227 238 254 257 253 262 264 263 260 257 265 272 268 274 271 271 278 292 285 271 258 261
58 323 343 115 125 196 218 170 227 142 83 257 98 49 226 33 25 306 190 201 222 225 250 244 243 256 272 275 273 273 269 269 265 260 265 265 263 274 281 283 287 277 277 264